QPF
0.00 0.00 0.00 0.00 0.00 0.00 0.01 0.01 0.01 0.01 0.02 0.03 0.03 0.02 0.03 0.04 0.04 0.03 0.03 0.03 0.03 0.05 0.10 0.10 0.08 0.06 0.05 0.04 0.03 0.04 0.05 0.05 0.05 0.04 0.05 0.06 0.06 0.05 0.05 0.05 0.05 0.05 0.04 0.03
0.00 0.00 0.00 0.00 0.00 0.00 0.00 0.01 0.01 0.01 0.02 0.02 0.02 0.02 0.03 0.03 0.03 0.03 0.03 0.04 0.04 0.07 0.09 0.10 0.08 0.06 0.05 0.04 0.04 0.03 0.04 0.05 0.05 0.05 0.05 0.05 0.05 0.05 0.06 0.07 0.09 0.10 0.11 0.09
0.00 0.00 0.00 0.00 0.00 0.00 0.01 0.01 0.01 0.01 0.02 0.01 0.02 0.03 0.03 0.03 0.02 0.02 0.03 0.03 0.04 0.04 0.04 0.07 0.10 0.08 0.06 0.06 0.06 0.04 0.04 0.05 0.04 0.04 0.03 0.03 0.03 0.04 0.06 0.08 0.10 0.12 0.12 0.11
0.00 0.00 0.00 0.00 0.00 0.00 0.01 0.01 0.01 0.01 0.01 0.02 0.02 0.02 0.02 0.02 0.02 0.02 0.03 0.03 0.03 0.03 0.04 0.06 0.08 0.10 0.09 0.07 0.07 0.05 0.04 0.04 0.04 0.02 0.02 0.02 0.02 0.03 0.04 0.05 0.06 0.06 0.06 0.06
0.01 0.01 0.01 0.00 0.00 0.00 0.01 0.01 0.02 0.02 0.01 0.02 0.03 0.03 0.03 0.04 0.04 0.04 0.05 0.07 0.05 0.04 0.04 0.03 0.03 0.04 0.09 0.08 0.07 0.05 0.04 0.04 0.04 0.03 0.03 0.04 0.05 0.05 0.05 0.05 0.05 0.04 0.04 0.04
0.01 0.01 0.01 0.01 0.00 0.00 0.01 0.01 0.01 0.01 0.02 0.02 0.02 0.03 0.05 0.07 0.08 0.04 0.03 0.05 0.05 0.04 0.03 0.03 0.01 0.02 0.04 0.07 0.07 0.06 0.08 0.08 0.08 0.09 0.08 0.07 0.07 0.07 0.06 0.05 0.05 0.05 0.05 0.05
0.01 0.01 0.02 0.01 0.01 0.01 0.03 0.04 0.04 0.02 0.01 0.02 0.02 0.04 0.07 0.09 0.08 0.04 0.03 0.03 0.02 0.01 0.02 0.02 0.02 0.01 0.02 0.03 0.04 0.07 0.09 0.11 0.10 0.09 0.10 0.09 0.08 0.06 0.04 0.04 0.05 0.06 0.07 0.06
0.01 0.02 0.02 0.01 0.01 0.02 0.08 0.11 0.09 0.06 0.04 0.05 0.07 0.09 0.07 0.04 0.02 0.03 0.02 0.02 0.01 0.01 0.01 0.02 0.02 0.02 0.02 0.02 0.02 0.04 0.05 0.05 0.06 0.06 0.07 0.08 0.07 0.06 0.05 0.04 0.04 0.04 0.04 0.05
0.02 0.02 0.02 0.02 0.02 0.03 0.05 0.06 0.04 0.04 0.04 0.06 0.03 0.03 0.02 0.02 0.02 0.02 0.01 0.01 0.01 0.01 0.01 0.01 0.02 0.02 0.02 0.02 0.02 0.03 0.04 0.03 0.04 0.05 0.05 0.06 0.07 0.07 0.06 0.06 0.04 0.04 0.03 0.03
0.02 0.03 0.03 0.03 0.01 0.01 0.02 0.03 0.03 0.02 0.03 0.03 0.02 0.01 0.01 0.02 0.02 0.02 0.02 0.02 0.02 0.02 0.02 0.02 0.01 0.01 0.01 0.02 0.02 0.02 0.02 0.03 0.03 0.04 0.04 0.04 0.04 0.04 0.05 0.05 0.06 0.05 0.04 0.03
0.03 0.02 0.01 0.01 0.01 0.01 0.01 0.01 0.01 0.01 0.01 0.01 0.01 0.01 0.01 0.02 0.02 0.01 0.02 0.03 0.02 0.02 0.02 0.01 0.01 0.01 0.01 0.01 0.01 0.01 0.02 0.02 0.02 0.02 0.02 0.03 0.03 0.04 0.05 0.03 0.04 0.04 0.04 0.03
0.03 0.02 0.01 0.01 0.01 0.01 0.01 0.01 0.02 0.02 0.02 0.02 0.01 0.01 0.01 0.02 0.01 0.01 0.02 0.02 0.03 0.03 0.02 0.02 0.02 0.02 0.01 0.00 0.01 0.01 0.01 0.01 0.01 0.01 0.01 0.02 0.02 0.02 0.03 0.03 0.02 0.03 0.03 0.04
0.01 0.00 0.00 0.00 0.01 0.02 0.04 0.03 0.02 0.02 0.02 0.03 0.03 0.02 0.02 0.02 0.02 0.01 0.01 0.02 0.02 0.03 0.03 0.03 0.03 0.04 0.02 0.01 0.01 0.01 0.01 0.01 0.01 0.01 0.01 0.02 0.02 0.01 0.02 0.02 0.03 0.02 0.02 0.02
0.01 0.01 0.01 0.03 0.03 0.03 0.03 0.02 0.02 0.03 0.04 0.04 0.04 0.04 0.02 0.02 0.03 0.03 0.03 0.02 0.02 0.02 0.02 0.02 0.03 0.03 0.02 0.01 0.01 0.01 0.01 0.01 0.01 0.01 0.01 0.01 0.01 0.02 0.03 0.03 0.03 0.03 0.03 0.03
0.01 0.01 0.01 0.02 0.02 0.01 0.01 0.02 0.03 0.03 0.03 0.02 0.02 0.02 0.02 0.02 0.03 0.03 0.02 0.02 0.02 0.02 0.02 0.02 0.02 0.02 0.01 0.01 0.01 0.01 0.01 0.01 0.01 0.01 0.01 0.01 0.02 0.02 0.03 0.03 0.04 0.03 0.04 0.05
0.03 0.02 0.02 0.03 0.03 0.02 0.01 0.02 0.02 0.02 0.03 0.03 0.04 0.04 0.03 0.01 0.01 0.01 0.01 0.01 0.01 0.01 0.01 0.01 0.01 0.01 0.01 0.02 0.02 0.02 0.02 0.02 0.02 0.02 0.03 0.03 0.03 0.04 0.05 0.05 0.05 0.05 0.04 0.05
0.03 0.03 0.03 0.02 0.02 0.01 0.01 0.01 0.01 0.01 0.02 0.02 0.03 0.04 0.04 0.02 0.01 0.01 0.01 0.01 0.01 0.01 0.01 0.01 0.01 0.01 0.01 0.03 0.04 0.04 0.04 0.05 0.05 0.04 0.04 0.04 0.04 0.05 0.07 0.07 0.07 0.06 0.05 0.05
0.01 0.02 0.02 0.02 0.01 0.01 0.01 0.01 0.01 0.03 0.03 0.02 0.02 0.02 0.02 0.02 0.02 0.02 0.02 0.02 0.02 0.02 0.02 0.02 0.01 0.01 0.02 0.03 0.04 0.03 0.04 0.05 0.07 0.08 0.06 0.05 0.06 0.07 0.07 0.06 0.05 0.04 0.04 0.04
0.02 0.01 0.01 0.01 0.01 0.01 0.02 0.03 0.03 0.05 0.08 0.08 0.06 0.04 0.03 0.03 0.03 0.03 0.03 0.03 0.03 0.03 0.02 0.01 0.02 0.02 0.03 0.03 0.03 0.03 0.04 0.05 0.06 0.08 0.08 0.07 0.06 0.06 0.06 0.05 0.04 0.03 0.03 0.03
0.02 0.01 0.01 0.01 0.01 0.01 0.01 0.02 0.02 0.02 0.05 0.09 0.12 0.08 0.04 0.03 0.03 0.03 0.03 0.03 0.03 0.02 0.02 0.02 0.02 0.02 0.02 0.02 0.03 0.03 0.03 0.03 0.04 0.04 0.05 0.06 0.07 0.07 0.05 0.04 0.04 0.03 0.02 0.02
0.02 0.01 0.01 0.01 0.01 0.01 0.01 0.01 0.03 0.02 0.02 0.03 0.05 0.05 0.04 0.04 0.04 0.04 0.04 0.04 0.03 0.02 0.02 0.02 0.01 0.01 0.02 0.02 0.03 0.03 0.03 0.03 0.03 0.04 0.05 0.05 0.06 0.06 0.05 0.04 0.03 0.03 0.03 0.03
0.02 0.02 0.01 0.01 0.01 0.01 0.01 0.02 0.03 0.03 0.03 0.03 0.03 0.04 0.05 0.04 0.04 0.04 0.04 0.04 0.03 0.03 0.02 0.01 0.01 0.01 0.02 0.03 0.02 0.03 0.04 0.04 0.04 0.04 0.05 0.05 0.05 0.04 0.04 0.03 0.03 0.03 0.02 0.03
0.03 0.02 0.02 0.02 0.02 0.02 0.02 0.02 0.02 0.03 0.03 0.03 0.03 0.04 0.05 0.05 0.04 0.04 0.03 0.03 0.03 0.03 0.02 0.01 0.01 0.01 0.01 0.01 0.02 0.03 0.04 0.04 0.05 0.06 0.05 0.04 0.03 0.04 0.04 0.04 0.03 0.04 0.03 0.02
0.03 0.04 0.03 0.02 0.02 0.02 0.02 0.02 0.02 0.03 0.02 0.02 0.02 0.03 0.04 0.04 0.04 0.04 0.03 0.02 0.03 0.03 0.02 0.01 0.01 0.01 0.01 0.01 0.02 0.03 0.04 0.04 0.04 0.04 0.05 0.04 0.03 0.03 0.03 0.03 0.03 0.02 0.03 0.04
0.02 0.03 0.04 0.04 0.04 0.04 0.03 0.03 0.02 0.02 0.02 0.02 0.02 0.02 0.03 0.04 0.05 0.04 0.05 0.04 0.04 0.03 0.02 0.01 0.01 0.01 0.01 0.02 0.02 0.02 0.03 0.04 0.03 0.03 0.02 0.03 0.03 0.03 0.03 0.03 0.03 0.02 0.02 0.03
0.02 0.02 0.02 0.02 0.02 0.02 0.02 0.02 0.02 0.01 0.01 0.02 0.02 0.01 0.02 0.02 0.02 0.03 0.04 0.03 0.02 0.02 0.02 0.02 0.02 0.02 0.02 0.02 0.01 0.01 0.02 0.02 0.02 0.02 0.02 0.02 0.02 0.02 0.02 0.01 0.01 0.02 0.02 0.03
0.02 0.02 0.01 0.01 0.01 0.01 0.01 0.01 0.01 0.01 0.01 0.01 0.01 0.01 0.01 0.01 0.02 0.03 0.03 0.03 0.02 0.02 0.02 0.02 0.02 0.03 0.03 0.02 0.02 0.01 0.01 0.02 0.02 0.02 0.02 0.02 0.02 0.02 0.02 0.02 0.02 0.03 0.03 0.04
MSLP
1010.40 1010.71 1011.04 1011.45 1011.95 1012.54 1013.16 1013.77 1014.27 1014.61 1014.73 1014.60 1014.23 1013.66 1012.97 1012.22 1011.47 1010.80 1010.21 1009.75 1009.38 1009.10 1008.88 1008.71 1008.56 1008.44 1008.35 1008.32 1008.35 1008.45 1008.61 1008.84 1009.10 1009.38 1009.65 1009.91 1010.11 1010.28 1010.40 1010.49 1010.56 1010.61 1010.65 1010.70
1010.92 1011.22 1011.46 1011.68 1011.94 1012.25 1012.62 1013.02 1013.40 1013.72 1013.92 1013.96 1013.81 1013.49 1013.02 1012.43 1011.78 1011.12 1010.47 1009.88 1009.37 1008.93 1008.57 1008.28 1008.06 1007.91 1007.83 1007.81 1007.85 1007.95 1008.10 1008.28 1008.50 1008.72 1008.94 1009.14 1009.32 1009.47 1009.59 1009.70 1009.78 1009.85 1009.91 1009.97
1011.54 1011.83 1011.96 1012.01 1012.03 1012.10 1012.23 1012.43 1012.68 1012.96 1013.20 1013.36 1013.38 1013.26 1012.97 1012.53 1011.97 1011.33 1010.66 1009.99 1009.36 1008.80 1008.34 1007.98 1007.72 1007.56 1007.48 1007.47 1007.52 1007.62 1007.74 1007.87 1008.02 1008.16 1008.31 1008.44 1008.57 1008.68 1008.79 1008.88 1008.97 1009.04 1009.11 1009.16
1012.10 1012.34 1012.37 1012.27 1012.10 1011.96 1011.89 1011.92 1012.06 1012.28 1012.54 1012.78 1012.93 1012.95 1012.81 1012.50 1012.03 1011.44 1010.76 1010.05 1009.37 1008.75 1008.23 1007.83 1007.55 1007.39 1007.32 1007.33 1007.38 1007.45 1007.53 1007.61 1007.67 1007.73 1007.78 1007.83 1007.88 1007.95 1008.01 1008.09 1008.16 1008.22 1008.27 1008.30
1012.41 1012.56 1012.50 1012.27 1011.97 1011.68 1011.47 1011.38 1011.44 1011.62 1011.89 1012.18 1012.43 1012.56 1012.54 1012.34 1011.96 1011.43 1010.79 1010.09 1009.39 1008.76 1008.23 1007.82 1007.55 1007.39 1007.32 1007.33 1007.36 1007.41 1007.43 1007.44 1007.41 1007.37 1007.33 1007.29 1007.26 1007.26 1007.28 1007.32 1007.35 1007.39 1007.40 1007.40
1012.31 1012.37 1012.22 1011.91 1011.53 1011.16 1010.88 1010.74 1010.76 1010.93 1011.21 1011.54 1011.86 1012.08 1012.16 1012.06 1011.77 1011.32 1010.74 1010.09 1009.43 1008.82 1008.30 1007.91 1007.64 1007.48 1007.42 1007.41 1007.41 1007.41 1007.37 1007.29 1007.18 1007.04 1006.91 1006.78 1006.68 1006.61 1006.58 1006.57 1006.57 1006.56 1006.54 1006.49
1011.74 1011.71 1011.49 1011.15 1010.75 1010.38 1010.10 1009.97 1010.00 1010.19 1010.50 1010.88 1011.25 1011.55 1011.71 1011.70 1011.50 1011.14 1010.64 1010.06 1009.46 1008.89 1008.41 1008.03 1007.77 1007.61 1007.53 1007.48 1007.44 1007.37 1007.27 1007.11 1006.91 1006.69 1006.47 1006.26 1006.10 1005.97 1005.89 1005.84 1005.80 1005.76 1005.69 1005.60
1010.76 1010.64 1010.40 1010.07 1009.72 1009.41 1009.20 1009.13 1009.22 1009.46 1009.82 1010.24 1010.67 1011.02 1011.24 1011.31 1011.20 1010.92 1010.51 1010.01 1009.48 1008.97 1008.52 1008.17 1007.90 1007.72 1007.59 1007.49 1007.39 1007.25 1007.06 1006.83 1006.55 1006.26 1005.97 1005.71 1005.49 1005.32 1005.20 1005.12 1005.05 1004.98 1004.88 1004.76
1009.52 1009.35 1009.12 1008.85 1008.60 1008.40 1008.31 1008.35 1008.52 1008.83 1009.24 1009.70 1010.16 1010.55 1010.82 1010.95 1010.91 1010.71 1010.38 1009.96 1009.50 1009.04 1008.63 1008.27 1007.99 1007.77 1007.58 1007.41 1007.23 1007.01 1006.74 1006.44 1006.10 1005.75 1005.41 1005.11 1004.85 1004.65 1004.51 1004.40 1004.31 1004.22 1004.12 1003.99
1008.23 1008.05 1007.87 1007.71 1007.59 1007.54 1007.58 1007.74 1008.02 1008.39 1008.84 1009.33 1009.80 1010.20 1010.50 1010.66 1010.67 1010.54 1010.28 1009.93 1009.53 1009.11 1008.71 1008.35 1008.03 1007.75 1007.50 1007.24 1006.97 1006.67 1006.33 1005.96 1005.57 1005.18 1004.80 1004.47 1004.20 1003.98 1003.82 1003.70 1003.60 1003.51 1003.40 1003.28
1007.11 1006.97 1006.87 1006.83 1006.86 1006.96 1007.15 1007.43 1007.79 1008.21 1008.69 1009.17 1009.63 1010.02 1010.31 1010.48 1010.52 1010.43 1010.22 1009.93 1009.57 1009.19 1008.79 1008.41 1008.05 1007.71 1007.37 1007.03 1006.67 1006.29 1005.88 1005.46 1005.02 1004.60 1004.20 1003.86 1003.57 1003.34 1003.16 1003.03 1002.93 1002.83 1002.74 1002.64
1006.33 1006.24 1006.25 1006.34 1006.51 1006.75 1007.06 1007.43 1007.85 1008.30 1008.76 1009.21 1009.63 1009.98 1010.24 1010.40 1010.45 1010.39 1010.22 1009.97 1009.64 1009.28 1008.88 1008.48 1008.07 1007.66 1007.25 1006.82 1006.38 1005.93 1005.46 1004.99 1004.52 1004.07 1003.67 1003.30 1003.00 1002.75 1002.56 1002.42 1002.30 1002.21 1002.12 1002.04
1005.91 1005.91 1006.02 1006.23 1006.53 1006.88 1007.28 1007.70 1008.14 1008.58 1009.00 1009.40 1009.75 1010.04 1010.26 1010.40 1010.44 1010.39 1010.25 1010.03 1009.73 1009.38 1008.99 1008.56 1008.11 1007.64 1007.15 1006.66 1006.15 1005.63 1005.12 1004.61 1004.12 1003.65 1003.23 1002.85 1002.53 1002.26 1002.04 1001.87 1001.74 1001.63 1001.54 1001.47
1005.79 1005.88 1006.09 1006.41 1006.80 1007.23 1007.68 1008.13 1008.56 1008.96 1009.33 1009.65 1009.93 1010.15 1010.32 1010.42 1010.46 1010.41 1010.29 1010.10 1009.82 1009.49 1009.09 1008.64 1008.16 1007.64 1007.10 1006.55 1005.99 1005.43 1004.88 1004.35 1003.84 1003.36 1002.92 1002.52 1002.17 1001.87 1001.62 1001.41 1001.24 1001.10 1000.99 1000.91
1005.85 1006.03 1006.33 1006.73 1007.19 1007.67 1008.15 1008.59 1008.99 1009.34 1009.63 1009.88 1010.09 1010.25 1010.36 1010.44 1010.46 1010.42 1010.32 1010.14 1009.89 1009.57 1009.17 1008.71 1008.20 1007.65 1007.08 1006.49 1005.89 1005.31 1004.74 1004.19 1003.67 1003.18 1002.73 1002.31 1001.93 1001.59 1001.29 1001.03 1000.81 1000.63 1000.49 1000.39
1005.95 1006.20 1006.58 1007.05 1007.55 1008.06 1008.54 1008.97 1009.33 1009.63 1009.86 1010.04 1010.19 1010.29 1010.37 1010.42 1010.43 1010.40 1010.31 1010.15 1009.91 1009.60 1009.20 1008.74 1008.22 1007.65 1007.05 1006.44 1005.83 1005.23 1004.66 1004.12 1003.60 1003.11 1002.65 1002.21 1001.80 1001.42 1001.07 1000.75 1000.48 1000.25 1000.07 999.94
1005.99 1006.31 1006.75 1007.27 1007.81 1008.33 1008.81 1009.22 1009.55 1009.80 1009.98 1010.12 1010.21 1010.28 1010.33 1010.36 1010.37 1010.33 1010.25 1010.10 1009.87 1009.55 1009.16 1008.69 1008.16 1007.58 1006.97 1006.36 1005.76 1005.17 1004.61 1004.08 1003.58 1003.10 1002.64 1002.19 1001.76 1001.35 1000.95 1000.59 1000.26 999.99 999.76 999.60
1005.93 1006.32 1006.82 1007.37 1007.94 1008.47 1008.94 1009.33 1009.64 1009.86 1010.01 1010.11 1010.18 1010.22 1010.25 1010.27 1010.26 1010.22 1010.13 1009.97 1009.73 1009.41 1009.01 1008.54 1008.00 1007.42 1006.82 1006.22 1005.64 1005.08 1004.56 1004.06 1003.59 1003.13 1002.69 1002.25 1001.82 1001.38 1000.96 1000.56 1000.20 999.89 999.64 999.46
1005.83 1006.28 1006.82 1007.40 1007.98 1008.52 1008.99 1009.36 1009.65 1009.85 1009.98 1010.06 1010.11 1010.13 1010.14 1010.14 1010.11 1010.05 1009.94 1009.76 1009.51 1009.17 1008.75 1008.27 1007.73 1007.16 1006.58 1006.01 1005.47 1004.95 1004.48 1004.03 1003.61 1003.21 1002.80 1002.39 1001.97 1001.54 1001.12 1000.71 1000.34 1000.01 999.75 999.57
1005.79 1006.28 1006.85 1007.45 1008.03 1008.56 1009.01 1009.36 1009.63 1009.81 1009.93 1009.99 1010.02 1010.03 1010.01 1009.99 1009.93 1009.84 1009.69 1009.47 1009.19 1008.82 1008.39 1007.89 1007.36 1006.81 1006.26 1005.74 1005.24 1004.79 1004.39 1004.01 1003.66 1003.32 1002.97 1002.61 1002.23 1001.83 1001.43 1001.04 1000.68 1000.37 1000.12 999.96
1005.90 1006.42 1006.99 1007.57 1008.13 1008.63 1009.05 1009.37 1009.61 1009.77 1009.86 1009.90 1009.91 1009.89 1009.85 1009.79 1009.70 1009.56 1009.37 1009.11 1008.78 1008.39 1007.94 1007.44 1006.92 1006.40 1005.89 1005.42 1005.00 1004.63 1004.31 1004.02 1003.75 1003.49 1003.22 1002.92 1002.60 1002.27 1001.91 1001.57 1001.24 1000.97 1000.75 1000.62
1006.21 1006.72 1007.27 1007.81 1008.31 1008.75 1009.11 1009.39 1009.58 1009.70 1009.76 1009.78 1009.76 1009.71 1009.64 1009.54 1009.41 1009.23 1008.99 1008.69 1008.33 1007.91 1007.44 1006.95 1006.45 1005.97 1005.52 1005.12 1004.77 1004.49 1004.26 1004.06 1003.89 1003.72 1003.53 1003.32 1003.08 1002.82 1002.53 1002.25 1001.98 1001.76 1001.59 1001.49
1006.71 1007.18 1007.66 1008.12 1008.54 1008.90 1009.18 1009.38 1009.51 1009.59 1009.61 1009.60 1009.55 1009.48 1009.38 1009.25 1009.07 1008.85 1008.58 1008.24 1007.86 1007.42 1006.95 1006.48 1006.01 1005.57 1005.19 1004.86 1004.60 1004.41 1004.27 1004.17 1004.09 1004.01 1003.92 1003.79 1003.64 1003.46 1003.25 1003.04 1002.84 1002.67 1002.55 1002.49
1007.31 1007.70 1008.08 1008.43 1008.74 1008.99 1009.18 1009.30 1009.37 1009.40 1009.39 1009.35 1009.28 1009.19 1009.08 1008.92 1008.73 1008.48 1008.18 1007.83 1007.43 1006.99 1006.54 1006.08 1005.65 1005.27 1004.95 1004.69 1004.51 1004.40 1004.35 1004.34 1004.34 1004.35 1004.34 1004.30 1004.23 1004.12 1003.99 1003.86 1003.72 1003.61 1003.54 1003.51
1007.89 1008.17 1008.43 1008.66 1008.84 1008.97 1009.06 1009.11 1009.13 1009.12 1009.09 1009.04 1008.98 1008.89 1008.78 1008.63 1008.43 1008.17 1007.87 1007.51 1007.11 1006.68 1006.24 1005.82 1005.43 1005.10 1004.83 1004.64 1004.53 1004.49 1004.50 1004.56 1004.63 1004.71 1004.77 1004.80 1004.80 1004.76 1004.70 1004.63 1004.55 1004.49 1004.45 1004.44
1008.32 1008.48 1008.61 1008.71 1008.77 1008.81 1008.82 1008.82 1008.81 1008.79 1008.76 1008.74 1008.70 1008.64 1008.55 1008.42 1008.23 1007.99 1007.69 1007.34 1006.95 1006.54 1006.13 1005.73 1005.38 1005.08 1004.86 1004.71 1004.65 1004.66 1004.72 1004.82 1004.94 1005.07 1005.17 1005.25 1005.30 1005.32 1005.31 1005.29 1005.26 1005.23 1005.21 1005.21
1008.52 1008.55 1008.57 1008.56 1008.54 1008.51 1008.48 1008.45 1008.45 1008.45 1008.47 1008.49 1008.50 1008.49 1008.44 1008.35 1008.19 1007.98 1007.70 1007.36 1006.98 1006.59 1006.19 1005.81 1005.48 1005.22 1005.02 1004.91 1004.87 1004.90 1004.99 1005.11 1005.26 1005.40 1005.54 1005.64 1005.72 1005.77 1005.80 1005.80 1005.80 1005.79 1005.77 1005.76
Thickness
5773 5783 5787 5787 5789 5792 5783 5774 5763 5767 5773 5784 5793 5797 5799 5800 5799 5796 5793 5792 5791 5788 5785 5783 5780 5777 5775 5771 5768 5765 5760 5754 5750 5747 5745 5741 5738 5736 5734 5731 5730 5727 5725 5723
5766 5780 5781 5777 5783 5786 5785 5781 5775 5774 5772 5789 5796 5796 5792 5792 5791 5786 5784 5784 5783 5782 5779 5777 5774 5771 5768 5765 5762 5759 5753 5748 5744 5741 5737 5735 5732 5730 5727 5724 5722 5720 5717 5715
5742 5762 5764 5749 5765 5772 5771 5775 5774 5764 5771 5783 5782 5784 5783 5783 5783 5781 5778 5776 5775 5774 5773 5771 5769 5767 5762 5759 5756 5751 5745 5741 5738 5735 5731 5728 5727 5722 5719 5717 5714 5712 5710 5708
5730 5740 5725 5746 5773 5775 5768 5768 5773 5774 5776 5778 5778 5779 5781 5781 5777 5774 5773 5770 5768 5768 5767 5765 5764 5761 5759 5755 5749 5744 5738 5735 5732 5728 5725 5722 5718 5715 5712 5710 5707 5704 5702 5701
5716 5715 5724 5745 5762 5766 5757 5751 5764 5764 5768 5771 5772 5769 5766 5772 5772 5770 5768 5765 5762 5763 5762 5759 5757 5755 5751 5746 5741 5735 5730 5727 5724 5721 5717 5714 5711 5708 5706 5703 5700 5698 5696 5694
5712 5710 5708 5730 5759 5771 5758 5736 5757 5760 5758 5759 5759 5742 5746 5761 5762 5760 5760 5758 5756 5755 5753 5750 5749 5747 5742 5736 5731 5727 5724 5721 5718 5715 5711 5707 5704 5702 5699 5696 5694 5692 5689 5687
5706 5704 5712 5739 5756 5759 5727 5725 5749 5754 5754 5753 5747 5745 5749 5753 5753 5750 5749 5748 5747 5745 5742 5741 5740 5736 5730 5726 5722 5721 5719 5715 5711 5708 5705 5701 5697 5694 5692 5689 5686 5683 5681 5679
5698 5694 5703 5740 5744 5733 5729 5741 5745 5746 5746 5744 5743 5745 5743 5743 5742 5740 5738 5737 5737 5733 5730 5730 5729 5725 5719 5716 5715 5713 5710 5706 5703 5700 5698 5695 5690 5687 5684 5681 5677 5674 5671 5669
5699 5702 5720 5732 5733 5736 5738 5736 5738 5738 5739 5738 5736 5734 5733 5731 5729 5728 5729 5728 5727 5723 5719 5718 5717 5714 5709 5707 5707 5704 5700 5697 5694 5691 5688 5685 5681 5678 5674 5672 5668 5665 5662 5660
5697 5704 5714 5721 5726 5729 5732 5732 5733 5734 5733 5731 5726 5725 5722 5720 5718 5717 5717 5716 5715 5712 5708 5705 5705 5703 5701 5699 5697 5693 5689 5686 5684 5681 5678 5675 5672 5670 5666 5663 5660 5657 5654 5651
5690 5698 5704 5710 5715 5719 5723 5726 5726 5725 5724 5721 5719 5715 5713 5710 5708 5707 5706 5705 5703 5700 5697 5695 5694 5692 5691 5689 5687 5682 5679 5676 5674 5671 5668 5666 5664 5661 5659 5657 5655 5651 5648 5645
5682 5692 5691 5695 5707 5713 5712 5712 5712 5712 5711 5712 5709 5705 5703 5700 5699 5698 5696 5694 5691 5688 5686 5684 5683 5681 5680 5679 5676 5673 5669 5666 5664 5661 5659 5657 5654 5652 5652 5650 5649 5647 5644 5640
5690 5694 5693 5696 5701 5704 5702 5703 5705 5703 5701 5700 5699 5697 5694 5690 5689 5688 5686 5684 5681 5678 5676 5674 5673 5672 5671 5669 5667 5664 5661 5658 5656 5654 5651 5648 5646 5643 5640 5640 5639 5638 5635 5632
5689 5688 5684 5687 5688 5693 5694 5695 5695 5694 5693 5692 5689 5686 5684 5681 5679 5677 5675 5674 5672 5669 5667 5665 5663 5662 5662 5661 5658 5655 5653 5651 5648 5646 5644 5641 5639 5636 5633 5630 5627 5625 5625 5623
5681 5681 5678 5680 5682 5683 5684 5684 5681 5679 5679 5678 5678 5676 5673 5670 5668 5667 5666 5666 5663 5660 5657 5655 5653 5652 5653 5652 5649 5646 5644 5641 5640 5638 5636 5634 5631 5628 5625 5622 5619 5616 5615 5614
5671 5672 5672 5672 5670 5672 5673 5672 5670 5669 5669 5668 5667 5665 5664 5663 5660 5659 5658 5656 5652 5649 5647 5645 5643 5644 5643 5642 5639 5637 5635 5635 5633 5630 5628 5625 5623 5619 5616 5613 5610 5608 5606 5605
5658 5657 5659 5660 5661 5662 5662 5662 5661 5660 5660 5659 5658 5657 5654 5652 5650 5649 5648 5647 5644 5642 5640 5637 5636 5636 5634 5632 5630 5628 5626 5625 5625 5621 5619 5617 5614 5611 5608 5605 5603 5601 5599 5599
5655 5655 5655 5655 5654 5654 5654 5654 5653 5652 5651 5651 5649 5647 5644 5642 5640 5639 5638 5636 5633 5631 5630 5630 5629 5628 5626 5624 5622 5620 5618 5617 5615 5613 5610 5608 5606 5604 5601 5598 5595 5593 5591 5589
5648 5648 5649 5649 5649 5648 5646 5646 5645 5644 5644 5643 5640 5637 5636 5634 5632 5631 5630 5627 5623 5620 5621 5621 5621 5619 5617 5616 5615 5613 5611 5609 5607 5605 5603 5601 5598 5595 5592 5589 5587 5585 5583 5581
5640 5641 5641 5641 5641 5640 5638 5638 5637 5636 5635 5634 5631 5629 5627 5625 5624 5622 5620 5617 5616 5616 5615 5614 5612 5610 5609 5608 5607 5605 5603 5602 5599 5597 5595 5592 5590 5587 5584 5582 5580 5578 5576 5574
5631 5632 5632 5632 5632 5632 5631 5630 5628 5626 5626 5625 5622 5620 5618 5617 5616 5613 5610 5607 5609 5608 5607 5606 5604 5603 5602 5601 5600 5597 5596 5594 5592 5590 5587 5584 5582 5579 5576 5574 5572 5570 5569 5567
5622 5622 5622 5623 5623 5622 5622 5622 5621 5619 5617 5615 5614 5612 5610 5608 5607 5604 5602 5600 5601 5600 5599 5597 5597 5596 5595 5594 5592 5590 5588 5587 5585 5582 5579 5577 5574 5571 5568 5566 5564 5562 5560 5558
5614 5614 5613 5614 5614 5613 5613 5612 5612 5611 5609 5607 5605 5603 5602 5600 5598 5595 5593 5595 5594 5593 5591 5589 5589 5589 5588 5586 5584 5583 5581 5579 5576 5574 5571 5569 5567 5564 5562 5559 5557 5554 5552 5551
5606 5606 5606 5606 5606 5604 5602 5602 5602 5602 5601 5599 5598 5596 5595 5592 5590 5590 5590 5590 5588 5586 5583 5582 5581 5581 5579 5577 5575 5574 5573 5570 5568 5566 5564 5562 5560 5557 5554 5552 5550 5547 5545 5543
5601 5600 5600 5599 5597 5596 5595 5594 5594 5593 5592 5591 5590 5589 5588 5587 5585 5585 5584 5583 5581 5579 5577 5576 5575 5573 5571 5569 5567 5566 5564 5562 5560 5558 5556 5555 5553 5550 5547 5545 5542 5540 5538 5536
5596 5595 5594 5594 5592 5591 5589 5587 5585 5584 5584 5582 5581 5581 5581 5581 5580 5578 5576 5575 5574 5572 5570 5569 5567 5565 5564 5562 5560 5559 5557 5555 5553 5551 5549 5548 5546 5543 5541 5539 5536 5534 5532 5529
5591 5590 5589 5588 5587 5586 5584 5582 5580 5579 5578 5576 5575 5575 5575 5573 5572 5571 5570 5568 5566 5564 5563 5561 5559 5557 5556 5555 5553 5552 5551 5548 5546 5544 5542 5540 5538 5536 5534 5533 5531 5528 5526 5524